close

Jackpot

Texas Poker Multi Jackpot System

Kini Telah hadir Jackpot SUPER ROYAL FLUSH

Kini Telah hadir Jackpot 2000 (khusus table VIP keatas).

Ikutilah global jackpot yang tersedia di system kami, dengan system jackpot terbaru dan pertama di indonesia, anda dapat membeli jackpot dengan harga 100 rupiah saja dan menangkan hadiahnya hingga puluhan juta rupiah.

Jackpot bukanlah suatu keharusan untuk dibeli, namun kami memberikan suatu fitur tambahan untuk member tercinta dari www.anekapoker.com.

Terdapat tiga pilihan harga jackpot yang bisa anda beli yaitu :100,500,1000 dan 2000(khusus table VIP Keatas) rupiah.

Hadiah dari Multi jackpot system www.anekapoker.com

  1. full house x 10 harga jackpot yang anda beli.
      (contoh:anda membeli 1000 maka:1000 X10 = 10.000)
  2. four of kind x 250 harga jackpot yang anda beli
      (contoh:anda membeli 1000 maka:1000 X250 = 250.000)
  3. Straight flush x 1200
      (contoh:anda membeli 1000 maka:1000 X1200 = 1.200.000)
  4. Royal flush x 10000 harga jackpot yang anda beli
      (contoh:anda membeli 1000 maka:1000 X10000 = 10.000.000)
  5. SUPER ROYAL FLUSH x 30000 harga jackpot yang anda beli
      (contoh:anda membeli 1000 maka:1000 X30000 = 30.000.000)

Kondisi kartu

  1. full house adalah kondisi kartu dimana kartu anda dan kartu tengah dengan total 7 kartu bisa mendapatkan nilai 5 kartu dengan kombinasi 1 tris(three of kind) dan 1 pair, contoh 3 kartu 10 dan 2 kartu 5
  2. Four of kind adalah kondisi kartu dimana kartu anda dan kartu tengah dengan total 7 kartu bisa mendapatkan nilai 5 kartu dengan kombinasi 4 kartu yang sama jumlah dan 1 kartu apapun juga contoh anda mendapatkan 4 buah kartu angka 3 dan 1 kartu apapun.
  3. Staright flush adalah kondisi kartu dimana kartu anda dan kartu tengah dengan total 7 kartu bisa mendapatkan nilai 5 kartu dengan kombinasi seri / staright dengan kembang yang sama contoh : urutan kartu dari angka 5, 6, 7, 8 , 9 10 dengan kembang yg sama misalnya as hati
  4. Royal flush adalah kondisi kartu dimana kartu anda dan kartu tengah dengan total 7 kartu bisa mendapatkan nilai 5 kartu dengan kombinasi seri / staright dengan kembang yang sama tetapi kartu tersebut haruslah dimulai dari 10. contoh 10, Queen, Jack, King dan aces dengan kembang yang sama
  5. Super Royal flush adalah kondisi kartu dimana Kedua kartu anda digabung dengan 3 kartu pertama meja haruslah royal flush. contoh kartu anda 10,Queen kembang sama dan 3 kartu pertama meja adalah Jack, King dan aces dengan kembang yang sama

Demikian adalah penjelasan dari Multi Jackpot www.anekapoker.com terima kasih dan selamat bermain salam hoki dari kami

Texas Poker Jackpot Winner

TOP SUPER ROYAL FLUSH
No.TanggalNamaPriceWin
122/04 16:18XDEJAVUXSuper Royal flush3,000,000
222/04 16:02VIOTASuper Royal flush15,000,000
322/04 15:47SAR0H17Super Royal flush3,000,000
422/04 05:55RUSTY009Super Royal flush3,000,000
522/04 04:19TUAHNIAN97Super Royal flush6,000,000
TOP ROYAL FLUSH
No.TanggalNamaPriceWin
122/04 21:01GOKIL0707Royal flush2,000,000
222/04 20:53HOKAGEE1Royal flush2,000,000
322/04 20:48REVIVAL699Royal flush2,000,000
422/04 20:14CEMBEN47Royal flush1,000,000
522/04 20:04NGEMIS18Royal flush1,000,000
TOP STRAIGHT FLUSH
No.TanggalNamaPriceWin
122/04 21:02GLADIS78Straight Flush120,000
222/04 21:02EIGER432Straight Flush240,000
322/04 20:56AXADENAYStraight Flush240,000
422/04 20:55ZZ8877Straight Flush600,000
522/04 20:54BARA15Straight Flush2,400,000
LATEST JACKPOT
No.TanggalNamaPriceWin
122/04 21:02SIPKIE99Full House5,000
222/04 21:02INIKUYAAKFull House1,000
322/04 21:02PEEWEE22Full House5,000
422/04 21:02FSY9BQOU5GFour Of A Kind250,000
522/04 21:02FY3OVBIL2BFull House5,000
622/04 21:02ZAKOBOI30Full House2,000
722/04 21:02DARMAN0111Full House2,000
822/04 21:02GLADIS78Straight Flush120,000
922/04 21:02CNGCEREMENFour Of A Kind250,000
1022/04 21:02KUKUNAPAZFull House10,000
1122/04 21:02LUCITONEFull House10,000
1222/04 21:02BANDRX89Full House2,000
1322/04 21:02ALUHANANGFull House2,000
1422/04 21:02IR2211Four Of A Kind250,000
1522/04 21:02BIGSU767Full House1,000
1622/04 21:02YUNAISFull House1,000
1722/04 21:02ONEBALFull House5,000
1822/04 21:02KHDDIVHGJ5Full House5,000
1922/04 21:02GERBANGAFull House5,000
2022/04 21:02EIGER432Straight Flush240,000
2122/04 21:02PAST21Full House10,000
2222/04 21:02ERNIAFour Of A Kind25,000
2322/04 21:02BUNAKIM25Full House2,000
2422/04 21:02Q1EL2V0TEQFull House1,000
2522/04 21:02ABR0CAPWQMFull House1,000
2622/04 21:02DESTRONG99Full House1,000
2722/04 21:02BABINGOBOFull House2,000
2822/04 21:02C3CEFE5EFull House2,000
2922/04 21:02LUCKY16889Full House20,000
3022/04 21:02PALKERR11Full House1,000
3122/04 21:02SEKTAFull House2,000
3222/04 21:02KAME456Full House2,000
3322/04 21:01C0TY123Full House2,000
3422/04 21:01SPLASH87Full House5,000
3522/04 21:01AACHAAHA84Full House10,000
3622/04 21:01GASSSLAWFull House2,000
3722/04 21:01MANCIS93Full House5,000
3822/04 21:01FAHRUKI212Full House1,000
3922/04 21:01PD4DKASIH12Full House2,000
4022/04 21:01YULIAWAN91Full House1,000
4122/04 21:01SNOTE27Full House10,000
4222/04 21:01GAYAM28Full House2,000
4322/04 21:01ROSODOANKFull House10,000
4422/04 21:01TUJUTUJUHFull House20,000
4522/04 21:01FIO_KU1Full House1,000
4622/04 21:01DMELL60Full House10,000
4722/04 21:01POWERNET87Full House10,000
4822/04 21:01NAGATEMPURFour Of A Kind125,000
4922/04 21:01UANG77MFull House2,000
5022/04 21:01ROYAL110JTFull House2,000

Domino Multi Jackpot System

Ikutilah global jackpot yang tersedia di system kami, dengan system jackpot terbaru dan pertama di indonesia, anda dapat membeli jackpot dengan harga 100 rupiah saja dan menangkan hadiahnya hingga puluhan juta rupiah.

Jackpot bukanlah suatu keharusan untuk dibeli, namun kami memberikan suatu fitur tambahan untuk member tercinta dari www.anekapoker.com.

Terdapat tiga pilihan harga jackpot yang bisa anda beli yaitu :100,500 dan 1000 rupiah.

Hadiah dari Multi jackpot system www.anekapoker.com

  1. Murni Kecil x 50 harga jackpot yang anda beli.
      (contoh:anda membeli 1000 maka:1000 X 50 = 50.000)
  2. Murni Besar x 50 harga jackpot yang anda beli
      (contoh:anda membeli 1000 maka:1000 X 50 = 50.000)
  3. BALAK x 100 harga jackpot yang anda beli
      (contoh:anda membeli 1000 maka:1000 X 100 = 100.000)
  4. ENAM DEWA x 6666 harga jackpot yang anda beli
      (contoh:anda membeli 1000 maka:1000 X 6666 = 6.666.000)

Demikian adalah penjelasan dari Multi Jackpot www.anekapoker.com terima kasih dan selamat bermain salam hoki dari kami

Domino Jackpot Winner

TOP ENAM DEWA
No.TanggalNamaPriceWin
122/04 21:02LIKUNKUmurni enam6,666,000
222/04 17:39ADAMM234murni enam6,666,000
322/04 14:34EXAHYSEXX6murni enam3,333,000
422/04 14:05HK4DWOW99JADImurni enam666,600
522/04 12:17KIT999murni enam6,666,000
TOP BALAK
No.TanggalNamaPriceWin
122/04 20:58SELO21balak100,000
222/04 20:56TEGGERIDNCCYbalak10,000
322/04 20:54VARO454647balak100,000
422/04 20:54SARDEWA123balak10,000
522/04 20:53ALUSARIHbalak100,000
LATEST JACKPOT
No.TanggalNamaPriceWin
122/04 21:02RYANESTAlucky992,500
222/04 21:02LIKUNKUmurni enam6,666,000
322/04 21:02SEHASEN161murni besar25,000
422/04 21:01N4G4EM4Smurni besar50,000
522/04 21:01B771C34Clucky9910,000
622/04 20:59GEPENKOBLOmurni besar25,000
722/04 20:58HENDI667murni kecil50,000
822/04 20:58ANA1303murni kecil50,000
922/04 20:58SELO21balak100,000
1022/04 20:58DOA__IBUmurni besar50,000
1122/04 20:57AAAALDUC78murni besar5,000
1222/04 20:56TEGGERIDNCCYbalak10,000
1322/04 20:56RICHAAAAAAmurni kecil25,000
1422/04 20:55THENGULLLLmurni besar25,000
1522/04 20:55UMG2020murni kecil50,000
1622/04 20:55ECI_HOKImurni besar50,000
1722/04 20:54SILLITTmurni besar50,000
1822/04 20:54MP9RL0M8EZmurni kecil5,000
1922/04 20:54TWINS21murni besar50,000
2022/04 20:54VARO454647balak100,000
2122/04 20:54SARDEWA123balak10,000
2222/04 20:53BOSJACKDmurni besar5,000
2322/04 20:53ALUSARIHbalak100,000
2422/04 20:52VARO454647balak100,000
2522/04 20:52EDI2901murni kecil5,000
2622/04 20:52CHILOENKlucky9950,000
2722/04 20:52HENRY04murni besar25,000
2822/04 20:52UMG2020murni kecil50,000
2922/04 20:52B5D11murni kecil50,000
3022/04 20:51K4D4L55murni kecil50,000
3122/04 20:51Q0W7XJ0TI8murni besar25,000
3222/04 20:50GOODPAPAmurni besar5,000
3322/04 20:50CAN858murni kecil50,000
3422/04 20:50MTA99BALAPmurni besar50,000
3522/04 20:50SI_JAGURSmurni kecil5,000
3622/04 20:50JUHUB123murni kecil50,000
3722/04 20:50DWTTHOKEBOmurni besar25,000
3822/04 20:50JIUNG245murni besar50,000
3922/04 20:50QELTVZAB9Mmurni kecil50,000
4022/04 20:50RICHAAAAAAmurni kecil25,000
4122/04 20:50COPETT79balak10,000
4222/04 20:49SUMMER87balak50,000
4322/04 20:49CHARIES77murni kecil5,000
4422/04 20:48MENTER1234murni kecil5,000
4522/04 20:48B0Y12345murni kecil50,000
4622/04 20:47ROYAAL9murni kecil25,000
4722/04 20:47HK4DWOW99JADImurni besar25,000
4822/04 20:46WIRO1206balak100,000
4922/04 20:46ABB11murni kecil5,000
5022/04 20:45ESBATU89murni kecil25,000

Ceme Multi Jackpot System

Jackpot dilihat dari gabungan kartu pemain dengan kartu bandar. Bandar harus membeli jackpot sebanyak jumlah player yang sedang duduk. Sebagai contoh bila terdapat 3 pemain duduk bermain, dan bandar memutuskan untuk membeli jackpot Rp 1.000, maka pada periode tersebut bandar akan membeli jackpot sebanyak 3xRp1.000 = Rp3.000.

Jackpot bukanlah suatu keharusan untuk dibeli, namun kami memberikan suatu fitur tambahan untuk member tercinta dari www.anekapoker.com.

Terdapat tiga pilihan harga jackpot yang bisa anda beli yaitu :100,500 dan 1000 rupiah.

Hadiah dari Multi jackpot system www.anekapoker.com

  1. Murni Kecil x 50 harga jackpot yang anda beli.
      (contoh:anda membeli 1000 maka:1000 X 50 = 50.000)
  2. Murni Besar x 50 harga jackpot yang anda beli
      (contoh:anda membeli 1000 maka:1000 X 50 = 50.000)
  3. BALAK x 200 harga jackpot yang anda beli
      (contoh:anda membeli 1000 maka:1000 X 200 = 200.000)
  4. ENAM DEWA x 6666 harga jackpot yang anda beli
      (contoh:anda membeli 1000 maka:1000 X 6666 = 6.666.000)

Demikian adalah penjelasan dari Multi Jackpot www.anekapoker.com terima kasih dan selamat bermain salam hoki dari kami

Ceme Jackpot Winner

TOP ENAM DEWA
No.TanggalNamaPriceWin
122/04 21:01STRIGYFLUSmurni enam666,600
222/04 20:13ACHER90murni enam6,666,000
322/04 20:13YUDI_227murni enam6,666,000
422/04 20:04BRAM62murni enam6,666,000
522/04 20:02ZAKIYS78murni enam666,600
TOP BALAK
No.TanggalNamaPriceWin
122/04 21:01ANJ545Sbalak100,000
222/04 21:00GOODDAY16balak200,000
322/04 21:00NAYSEARCHbalak200,000
422/04 20:59KODEL14balak200,000
522/04 20:59ANDA8811balak200,000
LATEST JACKPOT
No.TanggalNamaPriceWin
122/04 21:02HK_5888murni kecil50,000
222/04 21:02LA_RYANK98murni kecil50,000
322/04 21:02AXZ7209murni kecil50,000
422/04 21:02VAPORKUmurni kecil50,000
522/04 21:01STRIGYFLUSmurni enam666,600
622/04 21:01ANJ545Sbalak100,000
722/04 21:01MOLE123murni besar25,000
822/04 21:01KUNCORO61murni kecil5,000
922/04 21:01LUCKJUMmurni besar5,000
1022/04 21:01U3UEV5BIEDmurni besar50,000
1122/04 21:01SANDAL09murni kecil50,000
1222/04 21:01TETENG41murni kecil50,000
1322/04 21:01BUYA1223murni kecil50,000
1422/04 21:01MULY077murni kecil50,000
1522/04 21:00GOODDAY16balak200,000
1622/04 21:00NAYSEARCHbalak200,000
1722/04 21:00BLEHUR18murni kecil5,000
1822/04 21:00KAROSDMmurni kecil50,000
1922/04 21:00NORMANKEMmurni besar50,000
2022/04 21:00AJICASTANYmurni besar5,000
2122/04 21:00VAPORKUmurni besar50,000
2222/04 21:00MARTH18murni besar50,000
2322/04 21:00KAYRA89murni besar50,000
2422/04 21:00ELLPASOmurni besar25,000
2522/04 21:00MOENZA69murni besar5,000
2622/04 21:00KUPU2211murni besar25,000
2722/04 21:00RS160983murni kecil50,000
2822/04 21:00KIKOKEKImurni kecil5,000
2922/04 21:00KAROSDMmurni besar50,000
3022/04 20:59BA5417ENmurni kecil50,000
3122/04 20:59KODEL14balak200,000
3222/04 20:59ANDA8811balak200,000
3322/04 20:59KUDAO9balak200,000
3422/04 20:59SORAYAWEWbalak100,000
3522/04 20:59KAPU9murni kecil50,000
3622/04 20:59BOSEL_9murni kecil50,000
3722/04 20:59AYUKECE24murni besar50,000
3822/04 20:59YOGIFERmurni besar50,000
3922/04 20:59TITITE69murni kecil50,000
4022/04 20:59TAZOZmurni besar25,000
4122/04 20:59X3Q26PGLZSbalak100,000
4222/04 20:58SARTI234murni kecil5,000
4322/04 20:58LEXLUCImurni kecil50,000
4422/04 20:58VAPORKUmurni kecil50,000
4522/04 20:58JOELINK88murni kecil50,000
4622/04 20:58POLIG4MYmurni besar50,000
4722/04 20:58RAKHA272murni besar5,000
4822/04 20:58KOJOO47murni besar50,000
4922/04 20:58KOJOO47murni besar50,000
5022/04 20:58BEBE0203murni besar50,000